Location: Cabri�res
(43.7840°N, 5.4986°E)
Time: 21:38:10
(UTC+00:00)

Meteor 1-16 Rocket - Pass Details

Date: 09 April 2020
Orbit: 790 x 907 km, 81.2° (Epoch: 05 June)

Event Time Altitude Azimuth Distance (km) Brightness Sun altitude
Rises 18:29:44 0° 175° (S) 3,304 7.1 -3.4°
Reaches altitude 10° 18:32:07 10° 170° (S) 2,390 6.3 -3.9°
Maximum altitude 18:37:22 54° 94° (E) 999 4.3 -4.8°
Drops below altitude 10° 18:42:48 10° 19° (NNE) 2,479 6.6 -5.7°
Sets 18:45:18 0° 15° (NNE) 3,438 7.4 -6.1°
